DW5679 Weather Reports


Display with metric or nautical units.
time (UTC)temp
F
wind
direction
speed
MPH
gust
MPH
rain 1hr
in
rain 24hr
in
rain mn
in
humidity
%
barometer
mb
20260831200038 94 33 0.0 0.0 0.00 0.00 0.00 47 1016.6
20260831200016 94 3 0.0 0.0 0.00 0.00 0.00 47 1016.5
20260831194517 93 1 0.0 1.0 0.00 0.00 0.00 47 1016.6
20260831193016 94 34 0.0 4.0 0.00 0.00 0.00 47 1016.7
20260831193009 93 4 0.0 1.0 0.00 0.00 0.00 48 1016.6
20260831191510 94 32 0.0 1.0 0.00 0.00 0.00 45 1016.9
20260831191508 93 2 0.0 1.0 0.00 0.00 0.00 45 1016.8
20260831190013 93 2 0.0 1.0 0.00 0.00 0.00 49 1016.9
20260831190009 93 32 0.0 1.0 0.00 0.00 0.00 49 1017.1
20260831184505 92 32 0.0 0.0 0.00 0.00 0.00 49 1017.2
20260831184503 92 3 0.0 0.0 0.00 0.00 0.00 50 1017.1
20260831183023 91 301 0.0 0.0 0.00 0.00 0.00 51 1017.6
20260831183001 91 271 0.0 0.0 0.00 0.00 0.00 51 1017.3
20260831181600 92 272 0.0 0.0 0.00 0.00 0.00 50 1017.5
20260831181525 92 301 0.0 0.0 0.00 0.00 0.00 49 1017.9
20260831180105 91 311 0.0 0.0 0.00 0.00 0.00 51 1017.8
20260831180024 92 341 0.0 0.0 0.00 0.00 0.00 50 1018.1
20260831174555 91 272 0.0 0.0 0.00 0.00 0.00 51 1017.8
20260831174521 91 345 0.0 0.0 0.00 0.00 0.00 51 1018.2
20260831173101 90 39 0.0 1.0 0.00 0.00 0.00 55 1017.9
20260831173007 91 69 0.0 1.0 0.00 0.00 0.00 55 1018.3
20260831171552 89 50 0.0 0.0 0.00 0.00 0.00 55 1018.2
20260831171530 90 80 0.0 0.0 0.00 0.00 0.00 54 1018.6
20260831170047 89 51 0.0 0.0 0.00 0.00 0.00 58 1018.3
20260831170029 89 82 0.0 1.0 0.00 0.00 0.00 57 1018.7
20260831164544 88 51 0.0 1.0 0.00 0.00 0.00 58 1018.4
20260831164539 88 81 0.0 1.0 0.00 0.00 0.00 59 1018.7
20260831163043 87 51 0.0 2.0 0.00 0.00 0.00 62 1018.6
20260831163022 87 81 0.0 2.0 0.00 0.00 0.00 62 1018.8
20260831161536 85 51 0.0 1.0 0.00 0.00 0.00 66 1018.6
20260831161515 86 82 0.0 1.0 0.00 0.00 0.00 66 1018.8
20260831160031 84 52 0.0 0.0 0.00 0.00 0.00 72 1018.6
20260831160012 84 82 0.0 0.0 0.00 0.00 0.00 71 1018.8
20260831154554 83 82 0.0 0.0 0.00 0.00 0.00 75 1018.9
20260831154528 83 52 0.0 0.0 0.00 0.00 0.00 75 1018.9
20260831153028 82 82 0.0 1.0 0.00 0.00 0.00 74 1019.0
20260831153024 82 52 0.0 1.0 0.00 0.00 0.00 74 1018.9
20260831151619 81 53 0.0 1.0 0.00 0.00 0.00 75 1018.9
20260831151525 81 83 0.0 1.0 0.00 0.00 0.00 75 1019.0
20260831150048 80 53 0.0 0.0 0.00 0.00 0.00 77 1018.9
20260831150024 80 83 0.0 0.0 0.00 0.00 0.00 77 1018.9
20260831144614 79 53 0.0 0.0 0.00 0.00 0.00 79 1018.8
20260831144517 79 83 0.0 0.0 0.00 0.00 0.00 79 1018.9
20260831143049 77 53 0.0 0.0 0.00 0.00 0.00 81 1018.8
20260831143020 78 83 0.0 0.0 0.00 0.00 0.00 81 1018.9
20260831141547 76 53 0.0 0.0 0.00 0.00 0.00 82 1018.8
20260831141531 77 83 0.0 0.0 0.00 0.00 0.00 81 1018.8
20260831140042 75 53 0.0 0.0 0.00 0.00 0.00 84 1018.8
20260831140031 76 83 0.0 1.0 0.00 0.00 0.00 83 1018.8
20260831134546 74 53 0.0 1.0 0.00 0.00 0.00 86 1018.6
20260831134528 75 83 0.0 1.0 0.00 0.00 0.00 86 1018.7
20260831133037 73 53 0.0 0.0 0.00 0.00 0.00 87 1018.5
20260831133026 73 83 0.0 0.0 0.00 0.00 0.00 87 1018.6
20260831131536 71 53 0.0 0.0 0.00 0.00 0.00 88 1018.4
20260831131523 72 83 0.0 0.0 0.00 0.00 0.00 88 1018.5
20260831130034 70 53 0.0 0.0 0.00 0.00 0.00 88 1018.3
20260831130020 71 83 0.0 0.0 0.00 0.00 0.00 87 1018.4
20260831124533 70 53 0.0 0.0 0.00 0.00 0.00 88 1018.2
20260831123032 70 54 0.0 0.0 0.00 0.00 0.00 87 1018.1
20260831123029 70 83 0.0 0.0 0.00 0.00 0.00 87 1018.0
20260831121530 70 53 0.0 1.0 0.00 0.00 0.00 88 1017.9
20260831120035 70 83 0.0 0.0 0.00 0.00 0.00 88 1017.8
20260831120032 69 53 0.0 0.0 0.00 0.00 0.00 88 1017.8
20260831114533 69 85 0.0 0.0 0.00 0.00 0.00 88 1017.6
20260831114531 69 56 0.0 0.0 0.00 0.00 0.00 89 1017.6
20260831113026 69 55 0.0 0.0 0.00 0.00 0.00 88 1017.5
20260831113019 70 85 0.0 0.0 0.00 0.00 0.00 88 1017.5
20260831111523 70 55 0.0 0.0 0.00 0.00 0.00 87 1017.3
20260831111514 70 85 0.0 0.0 0.00 0.00 0.00 87 1017.5
20260831110046 70 55 0.0 0.0 0.00 0.00 0.00 86 1017.3
20260831110012 70 85 0.0 0.0 0.00 0.00 0.00 86 1017.3
20260831104625 70 55 0.0 0.0 0.00 0.00 0.00 86 1017.3
20260831104542 71 85 0.0 0.0 0.00 0.00 0.00 86 1017.3
20260831103041 70 55 0.0 0.0 0.00 0.00 0.00 86 1017.1
20260831103034 70 85 0.0 0.0 0.00 0.00 0.00 86 1017.2
20260831101533 70 85 0.0 0.0 0.00 0.00 0.00 87 1017.1
20260831101507 70 55 0.0 0.0 0.00 0.00 0.00 87 1017.0
20260831100023 70 88 0.0 0.0 0.00 0.00 0.00 85 1017.0
20260831100000 70 58 0.0 0.0 0.00 0.00 0.00 85 1017.0
20260831094600 70 58 0.0 0.0 0.00 0.00 0.00 85 1016.8
20260831094518 70 87 0.0 0.0 0.00 0.00 0.00 84 1016.9
20260831093100 70 58 0.0 0.0 0.00 0.00 0.00 84 1016.8
20260831093030 70 88 0.0 0.0 0.00 0.00 0.00 84 1016.8
20260831091557 70 58 0.0 0.0 0.00 0.00 0.00 84 1016.8
20260831091530 71 88 0.0 0.0 0.00 0.00 0.00 84 1016.7
20260831090036 71 88 0.0 0.0 0.00 0.00 0.00 83 1016.7
20260831084559 72 57 0.0 0.0 0.00 0.00 0.00 83 1016.6
20260831084529 72 87 0.0 0.0 0.00 0.00 0.00 83 1016.7
20260831083054 71 58 0.0 0.0 0.00 0.00 0.00 84 1016.6
20260831083027 71 88 0.0 0.0 0.00 0.00 0.00 83 1016.7
20260831081552 71 58 0.0 0.0 0.00 0.00 0.00 83 1016.7
20260831081521 71 88 0.0 0.0 0.00 0.00 0.00 82 1016.6
20260831080050 71 58 0.0 0.0 0.00 0.00 0.00 83 1016.7
20260831080022 72 88 0.0 0.0 0.00 0.00 0.00 82 1016.5
20260831074549 72 58 0.0 0.0 0.00 0.00 0.00 82 1016.5
20260831074532 72 88 0.0 0.0 0.00 0.00 0.00 81 1016.4
20260831073047 72 58 0.0 0.0 0.00 0.00 0.00 82 1016.5
20260831073030 73 88 0.0 0.0 0.00 0.00 0.00 81 1016.5
20260831071546 72 58 0.0 0.0 0.00 0.00 0.00 80 1016.6
20260831071533 73 88 0.0 0.0 0.00 0.00 0.00 80 1016.6
20260831070054 72 57 0.0 1.0 0.00 0.00 0.00 81 1016.6
20260831070029 72 88 0.0 1.0 0.00 0.00 0.00 81 1016.7
20260831064544 72 58 0.0 0.0 0.00 0.00 0.00 80 1016.7
20260831064527 73 88 0.0 0.0 0.00 0.00 0.00 80 1016.6
20260831063044 73 58 0.0 0.0 0.00 0.00 0.00 80 1016.7
20260831063033 73 88 0.0 0.0 0.00 0.00 0.00 80 1016.8
20260831061541 73 59 0.0 0.0 0.00 0.00 0.00 81 1016.7
20260831061535 74 90 0.0 0.0 0.00 0.00 0.00 81 1016.9
20260831060040 73 59 0.0 0.0 0.00 0.00 0.00 79 1016.8
20260831060010 73 89 0.0 0.0 0.00 0.00 0.00 78 1016.7
20260831054539 74 59 0.0 0.0 0.00 0.00 0.00 79 1016.8
20260831054510 74 89 0.0 0.0 0.00 0.00 0.00 78 1016.8
20260831053039 74 59 0.0 0.0 0.00 0.00 0.00 78 1016.8
20260831053007 75 89 0.0 0.0 0.00 0.00 0.00 77 1016.9
20260831051538 74 59 0.0 0.0 0.00 0.00 0.00 76 1016.8
20260831051528 75 89 0.0 0.0 0.00 0.00 0.00 76 1016.7
20260831050039 74 59 0.0 0.0 0.00 0.00 0.00 77 1016.7
20260831050025 75 89 0.0 0.0 0.00 0.00 0.00 78 1016.8
20260831044531 74 60 0.0 0.0 0.00 0.00 0.00 77 1016.7
20260831044518 75 90 0.0 0.0 0.00 0.00 0.00 76 1016.6
20260831043030 75 60 0.0 0.0 0.00 0.00 0.00 77 1016.6
20260831043016 76 90 0.0 0.0 0.00 0.00 0.00 76 1016.6
20260831041530 75 60 0.0 0.0 0.00 0.00 0.00 77 1016.5
20260831041512 76 89 0.0 0.0 0.00 0.00 0.00 77 1016.5
20260831040030 75 61 0.0 0.0 0.00 0.00 0.00 75 1016.4
20260831040007 76 91 0.0 0.0 0.00 0.00 0.00 74 1016.6
20260831034534 76 91 0.0 0.0 0.00 0.00 0.00 73 1016.3
20260831034528 76 62 0.0 0.0 0.00 0.00 0.00 73 1016.1
20260831033054 76 62 0.0 0.0 0.00 0.00 0.00 74 1016.1
20260831033035 76 91 0.0 0.0 0.00 0.00 0.00 73 1016.2
20260831031528 76 61 0.0 0.0 0.00 0.00 0.00 73 1016.0
20260831031523 77 92 0.0 0.0 0.00 0.00 0.00 73 1016.1
20260831030030 77 91 0.0 0.0 0.00 0.00 0.00 72 1016.0
20260831030027 77 61 0.0 0.0 0.00 0.00 0.00 73 1015.8
20260831024531 78 94 0.0 0.0 0.00 0.00 0.00 68 1015.9
20260831024529 77 65 0.0 0.0 0.00 0.00 0.00 69 1015.7
20260831023035 79 100 0.0 0.0 0.00 0.00 0.00 71 1015.9
20260831023027 78 70 0.0 0.0 0.00 0.00 0.00 71 1015.7
20260831021529 79 121 0.0 0.0 0.00 0.00 0.00 68 1015.8
20260831021525 79 91 0.0 0.0 0.00 0.00 0.00 69 1015.6
20260831020030 80 121 0.0 0.0 0.00 0.00 0.00 65 1015.6
20260831020025 79 91 0.0 0.0 0.00 0.00 0.00 66 1015.5
20260831014528 81 121 0.0 0.0 0.00 0.00 0.00 63 1015.2
20260831014523 80 91 0.0 0.0 0.00 0.00 0.00 64 1015.3
20260831013035 81 121 0.0 0.0 0.00 0.00 0.00 62 1015.1
20260831013023 81 91 0.0 0.0 0.00 0.00 0.00 63 1015.0
20260831011534 82 121 0.0 0.0 0.00 0.00 0.00 62 1015.0
20260831011522 82 91 0.0 0.0 0.00 0.00 0.00 62 1015.0
20260831010035 83 121 0.0 0.0 0.00 0.00 0.00 59 1015.0
20260831010023 82 91 0.0 0.0 0.00 0.00 0.00 59 1014.9
20260831004530 84 121 0.0 0.0 0.00 0.00 0.00 57 1014.9
20260831004524 83 91 0.0 0.0 0.00 0.00 0.00 57 1014.7
20260831003030 85 121 0.0 0.0 0.00 0.00 0.00 55 1014.9
20260831003016 85 91 0.0 0.0 0.00 0.00 0.00 55 1014.8
20260831001626 87 91 0.0 0.0 0.00 0.00 0.00 53 1014.7
20260831001526 87 121 0.0 0.0 0.00 0.00 0.00 53 1014.8
20260831000015 88 91 0.0 0.0 0.00 0.00 0.00 52 1014.7
20260831000005 89 121 0.0 0.0 0.00 0.00 0.00 52 1014.7
20260830234539 89 91 0.0 0.0 0.00 0.00 0.00 49 1014.8
20260830234529 90 121 0.0 0.0 0.00 0.00 0.00 48 1014.9
20260830233044 90 91 0.0 0.0 0.00 0.00 0.00 48 1015.0
20260830233018 90 122 0.0 0.0 0.00 0.00 0.00 47 1015.0
20260830231536 90 92 0.0 0.0 0.00 0.00 0.00 47 1015.0
20260830231514 90 121 0.0 0.0 0.00 0.00 0.00 46 1015.0
20260830230037 90 92 0.0 0.0 0.00 0.00 0.00 46 1014.8
20260830230014 91 122 0.0 0.0 0.00 0.00 0.00 45 1015.1
20260830224535 91 91 0.0 0.0 0.00 0.00 0.00 44 1014.9
20260830224507 91 122 0.0 0.0 0.00 0.00 0.00 44 1015.0
20260830223035 91 91 0.0 1.0 0.00 0.00 0.00 43 1015.0
20260830223004 91 122 0.0 1.0 0.00 0.00 0.00 42 1015.1
20260830221539 91 96 0.0 1.0 0.00 0.00 0.00 43 1015.0
20260830221527 92 126 0.0 0.0 0.00 0.00 0.00 42 1015.1
20260830220134 91 142 0.0 1.0 0.00 0.00 0.00 42 1015.0
20260830220021 92 172 0.0 1.0 0.00 0.00 0.00 41 1015.1
20260830214533 91 132 0.0 3.0 0.00 0.00 0.00 44 1015.0
20260830214516 92 163 0.0 3.0 0.00 0.00 0.00 43 1015.1
20260830213036 92 74 0.0 1.0 0.00 0.00 0.00 46 1015.1
20260830213013 92 121 0.0 1.0 0.00 0.00 0.00 43 1015.3
20260830211530 92 62 0.0 0.0 0.00 0.00 0.00 43 1015.4
20260830211509 92 93 0.0 1.0 0.00 0.00 0.00 43 1015.4
20260830210127 92 88 0.0 1.0 0.00 0.00 0.00 42 1015.5
20260830210030 92 119 0.0 1.0 0.00 0.00 0.00 43 1015.5
20260830204527 92 54 0.0 0.0 0.00 0.00 0.00 43 1015.6
20260830204523 92 85 0.0 2.0 0.00 0.00 0.00 43 1015.7
20260830203043 92 85 0.0 1.0 0.00 0.00 0.00 42 1015.8
20260830203026 92 55 0.0 1.0 0.00 0.00 0.00 43 1015.8
20260830201524 91 48 0.0 1.0 0.00 0.00 0.00 44 1015.8
20260830201516 91 78 0.0 1.0 0.00 0.00 0.00 42 1015.9